User: anonymous   Login
Location: Corralito
(10.2667°N, 66.9500°W)
Time: 08:50:32
(UTC+00:00)
Language:

Cosmos 1331 Rocket - Orbit

View from above orbital plane
View from above orbital plane
View from above satellite
View from above satellite

Ground track
Ground track

The orbit data is extracted from the following two-line orbital elements,

1 13028U 82001B   25131.38373096  .00000165  00000-0  61255-4 0  9991
2 13028  74.0388 111.3144 0019870 203.9602 156.0630 14.39656929271766
Epoch (UTC): 11 May 2025 09:12:34
Eccentricity: 0.0019870
inclination: 74.0388°
perigee height: 745 km
apogee height: 774 km
right ascension of ascending node: 111.3144°
argument of perigee: 203.9602°
revolutions per day: 14.39656929
mean anomaly at epoch: 156.0630°
orbit number at epoch: 27176

The dashed part of the orbit path shows where the satellite is in the earth's shadow,  

DLR